Location: *
(49.5667°N, 1.3667°W)
Time: 02:32:54
(UTC+00:00)

FAST - Pass Details

Date: 20 September 2019
Orbit: 346 x 3436 km, 83.0° (Epoch: 16 October)

Event Time Altitude Azimuth Distance (km) Brightness Sun altitude
Rises 19:20:31 0° 179° (S) 2,560 8.6 -12.3°
Reaches altitude 10° 19:22:49 10° 175° (S) 1,488 7.3 -12.7°
Maximum altitude 19:25:42 54° 97° (E) 448 4.5 -13.1°
Drops below altitude 10° 19:28:17 10° 18° (NNE) 1,323 7.3 -13.5°
Sets 19:30:12 0° 13° (NNE) 2,229 8.5 -13.8°
